Theta_e
300 293 290 287 288 288 290 289 289 289 290 290 291 291 289 288 290 291 289 290 290 287 286 288 289 290 291 293 295 295 295 292 292 292 293 293 293 293 293 293 294 295 295 299 300 300 299 299 298 297 297 297 297 297 297 297 298 298 299 299 299 300 300 300 298 299 299 298 297 297 298 298 299 300 299 300 300 300 299 299 300 299 299 298 298 298
302 292 288 289 290 289 288 289 289 289 291 291 289 289 288 291 287 291 290 289 289 287 286 288 288 289 291 293 294 295 294 292 293 292 293 293 293 294 294 294 294 295 300 303 301 300 299 297 298 297 296 297 296 296 296 296 297 297 298 298 299 299 299 299 299 299 299 299 298 297 298 298 298 299 298 298 299 299 300 299 299 298 298 298 297 298
290 287 289 290 290 290 290 289 290 289 290 291 290 289 288 288 290 291 289 289 289 288 286 287 287 288 291 293 294 295 296 297 298 296 295 294 294 294 294 294 295 296 297 298 298 299 297 299 298 297 296 296 296 296 296 295 296 296 297 298 299 299 299 298 299 299 299 299 300 300 299 300 298 300 300 299 299 300 299 299 298 298 298 298 297 296
291 289 288 290 289 288 290 289 289 290 291 288 288 286 284 289 285 282 289 289 290 288 286 287 286 288 292 294 294 295 295 296 300 299 299 299 296 296 295 296 297 296 297 298 298 298 297 298 297 296 296 296 296 296 295 296 296 297 298 297 297 298 299 299 299 300 299 300 300 300 300 299 299 297 297 297 298 298 298 298 299 297 297 297 297 296
289 289 289 290 290 288 290 292 290 286 286 291 292 289 286 286 285 285 286 290 291 290 289 287 286 287 292 291 293 294 295 295 297 297 296 295 298 297 298 296 299 297 299 298 298 298 297 297 297 297 297 298 297 297 297 297 297 298 297 298 298 298 298 299 300 299 298 300 299 298 297 297 297 295 296 295 296 296 296 297 297 297 297 297 297 297
287 289 289 289 291 291 291 291 288 289 285 290 287 288 288 287 285 286 288 288 286 285 289 287 280 284 290 290 292 295 298 294 296 295 296 295 295 295 295 295 297 299 299 300 298 298 297 298 298 298 298 298 298 298 299 299 299 298 298 299 299 298 298 298 298 298 299 299 298 296 294 293 293 293 292 294 294 295 296 296 297 297 297 297 296 296
288 288 288 289 290 292 292 289 288 289 285 283 285 287 288 288 287 286 288 286 281 278 287 290 282 279 286 288 292 293 293 293 297 297 297 297 296 295 295 296 296 297 297 297 298 300 297 297 298 299 299 299 299 300 301 300 300 299 299 298 299 298 298 299 298 298 299 298 297 297 296 294 294 293 294 295 296 296 296 297 297 296 297 297 296 296
291 290 288 289 289 290 289 289 287 289 283 281 285 286 287 287 287 287 287 286 282 288 290 291 286 280 278 286 294 294 291 292 291 293 296 299 297 296 296 297 296 296 297 298 297 297 298 299 298 298 300 301 301 300 301 301 301 300 300 300 299 298 299 298 298 298 298 298 296 296 296 296 296 296 296 297 297 298 298 297 297 296 295 296 296 296
288 288 288 289 288 286 286 286 287 288 285 286 286 288 287 288 287 287 286 284 285 283 282 284 288 280 279 286 292 293 291 289 290 291 293 295 297 298 298 299 299 300 300 301 299 297 297 297 298 298 300 301 301 302 301 301 300 300 300 301 300 300 299 299 298 298 297 298 297 297 297 296 298 298 299 298 297 296 297 296 295 295 294 295 295 295
290 288 288 289 287 285 286 286 285 287 287 288 288 289 288 288 287 287 282 282 283 281 280 282 285 279 277 284 288 292 289 288 290 291 293 295 298 298 299 297 297 297 299 300 297 299 299 298 298 298 298 300 300 302 302 301 301 300 300 301 301 300 300 300 298 299 298 297 298 297 297 297 297 297 296 295 295 295 295 295 295 294 294 294 294 295
288 291 292 291 287 288 286 287 288 287 288 289 289 286 286 286 285 284 283 283 281 281 280 283 285 281 275 282 286 286 290 291 289 290 292 294 295 297 298 296 296 295 295 297 300 299 298 299 299 299 299 299 301 300 300 301 300 300 300 300 300 300 300 300 299 298 298 298 298 298 298 298 297 297 297 295 295 294 294 294 295 294 294 294 294 293
288 289 290 286 290 290 288 288 288 288 288 287 286 284 283 284 282 283 282 283 279 279 281 281 283 284 276 277 286 290 290 290 291 290 292 293 294 296 295 297 297 297 297 297 297 298 299 298 298 299 297 297 299 300 299 299 299 300 299 299 299 299 299 299 299 298 298 298 298 297 298 298 299 298 298 296 295 295 295 294 294 294 293 293 293 293
287 286 287 288 287 288 288 287 287 286 287 286 284 285 280 280 281 278 282 278 280 279 281 281 283 278 277 282 288 291 290 291 293 293 294 293 293 294 295 296 296 298 297 298 297 298 299 298 297 296 296 295 296 299 298 298 298 298 298 298 298 298 299 299 299 298 298 298 298 298 298 298 299 299 298 297 296 296 295 295 295 294 293 292 292 292
284 283 287 288 288 289 288 284 285 284 286 285 283 282 280 274 272 271 274 279 279 281 281 280 283 279 281 287 290 291 293 293 293 294 294 294 295 295 296 296 297 298 298 299 299 299 299 299 300 299 298 297 297 298 299 298 299 298 298 297 298 298 298 298 298 298 298 298 298 298 298 298 298 298 298 298 297 297 296 296 295 295 294 293 292 292
280 281 285 287 285 287 286 286 285 283 283 284 284 284 279 277 275 270 275 275 274 277 281 281 279 277 279 284 293 293 294 293 292 293 294 295 296 296 295 297 295 295 296 298 298 299 299 300 299 300 300 299 298 299 299 298 298 298 298 298 298 297 297 298 297 297 298 298 298 298 298 298 298 298 298 298 298 297 297 296 296 295 294 293 293 292
282 282 285 285 285 285 286 287 288 286 282 284 285 284 282 280 282 277 280 278 276 275 277 278 278 282 286 290 292 293 292 293 293 295 294 295 296 298 297 296 295 296 297 298 298 299 300 300 299 299 299 299 299 299 298 298 298 298 298 298 298 298 297 298 297 297 297 297 298 297 297 298 298 297 297 297 297 297 297 297 296 295 294 294 292 292
280 278 284 287 286 283 283 285 287 285 283 284 284 282 283 285 283 279 276 277 276 276 275 279 282 285 290 289 292 292 291 292 292 294 294 295 297 297 298 296 295 296 296 296 297 296 297 298 299 299 298 298 298 299 299 300 299 299 298 298 298 297 297 297 297 297 297 297 296 297 297 297 297 297 296 297 296 296 297 297 296 295 294 293 293 292
281 282 283 285 283 283 285 283 285 287 283 282 280 282 285 283 282 280 277 278 277 274 276 281 277 278 280 280 290 290 289 291 292 293 294 296 296 295 297 295 296 296 297 297 296 297 297 297 298 299 299 299 298 298 298 299 299 300 299 298 298 297 297 297 297 297 297 296 296 296 296 296 297 297 296 296 296 296 296 295 295 293 293 292 291 291
286 279 280 282 284 285 286 285 284 286 287 283 282 287 283 281 281 283 278 271 271 271 274 277 277 278 281 283 287 287 288 291 292 292 292 293 294 295 294 294 295 296 296 296 296 296 297 296 297 296 296 297 298 298 298 299 299 299 298 299 299 298 297 297 297 296 296 296 297 297 296 296 295 296 295 295 295 294 295 294 293 292 291 289 289 289
285 279 281 280 283 282 282 282 280 280 285 283 285 284 284 281 279 278 279 278 278 271 272 272 277 277 285 286 288 289 289 291 292 292 293 294 295 295 293 295 295 295 295 296 296 296 296 296 296 296 296 296 297 297 297 298 297 298 298 298 298 298 297 297 297 296 296 295 296 296 294 295 295 294 295 294 294 294 293 293 292 290 289 289 288 287
283 282 276 281 280 283 280 280 280 281 278 277 280 281 279 282 284 282 280 279 277 274 275 273 271 278 287 290 289 289 291 292 292 293 294 295 295 293 294 295 295 295 295 295 295 295 296 296 296 296 295 296 296 296 296 296 297 297 297 297 297 297 297 296 296 295 295 294 295 294 294 294 294 294 294 293 293 293 292 291 291 288 288 286 286 286
282 280 277 280 278 277 281 280 282 281 282 279 280 278 280 279 277 273 274 280 279 276 273 274 272 281 289 292 291 290 292 292 294 293 292 295 293 293 294 294 295 295 295 295 295 295 296 295 296 295 295 295 294 295 295 296 296 295 296 297 296 296 296 296 296 295 294 293 293 292 292 292 292 292 291 291 291 291 289 288 288 286 286 286 285 286
284 283 282 279 280 281 282 281 281 281 279 279 281 282 283 282 281 278 273 277 277 278 278 278 274 279 289 291 289 291 291 292 293 292 294 293 293 294 295 295 295 296 296 296 295 296 296 295 295 296 295 295 295 295 295 294 295 295 295 295 295 296 296 296 296 294 294 293 292 292 291 291 290 289 289 289 287 287 286 286 286 286 286 285 285 285
290 282 279 279 277 280 280 279 279 280 281 278 278 278 280 281 280 280 279 278 279 277 276 277 272 280 290 291 291 290 291 293 293 293 295 293 293 294 294 295 295 295 295 295 295 296 296 295 295 294 294 296 295 294 294 294 295 295 294 294 294 294 295 295 295 294 293 292 292 291 291 291 289 290 289 289 288 287 286 286 286 286 286 285 285 285
280 281 281 279 278 280 280 278 280 278 278 279 281 280 281 282 279 279 280 280 277 278 277 276 273 280 291 289 292 290 292 291 292 293 290 293 293 294 294 295 295 295 295 295 295 296 295 295 295 296 295 294 295 294 294 294 294 294 295 293 294 294 294 294 293 293 292 291 291 290 290 289 289 289 288 288 288 287 287 286 286 286 286 285 284 284
283 283 280 275 272 271 271 274 279 281 278 280 283 282 282 282 279 278 276 277 274 276 280 275 277 285 290 290 293 292 292 292 293 294 294 293 293 293 294 295 295 294 295 294 295 295 295 295 295 294 294 295 294 294 294 294 294 293 293 294 293 293 292 292 291 291 289 289 289 289 288 288 288 288 288 288 287 287 287 286 286 285 285 284 284 283
283 283 282 281 280 278 280 281 280 284 281 277 280 279 281 282 282 281 281 279 277 277 278 281 282 284 287 290 290 291 291 291 292 293 293 293 292 292 293 294 294 294 294 295 295 295 294 293 295 294 294 295 294 294 294 293 294 293 292 293 292 292 292 291 289 288 287 287 288 288 288 288 288 288 287 287 287 287 286 285 284 283 283 283 282 282
282 280 281 279 280 281 283 278 281 284 280 280 280 280 281 281 281 281 279 277 281 280 279 284 285 283 287 289 291 292 292 292 292 292 293 292 292 293 293 293 294 294 294 295 294 294 294 294 294 294 294 294 295 294 293 292 293 293 293 293 292 291 289 291 288 287 287 287 287 287 287 287 286 286 286 285 285 285 284 283 282 282 282 282 282 282
282 280 280 281 279 282 283 282 282 282 281 280 281 281 280 281 281 280 280 283 283 281 280 284 284 284 289 291 292 292 292 292 292 293 293 293 293 292 293 293 292 293 294 293 293 293 293 294 294 294 294 295 294 294 293 293 292 291 291 291 292 289 289 288 287 287 286 286 287 287 286 286 284 284 284 284 285 284 284 284 283 282 282 281 280 281
281 281 281 281 278 280 281 281 280 280 279 281 282 282 282 281 282 282 282 283 284 284 286 286 286 286 289 291 292 293 294 293 294 293 292 291 292 293 293 292 292 293 293 293 293 293 293 294 294 293 294 293 293 293 293 293 292 292 291 291 290 290 289 287 287 286 286 286 287 286 285 286 285 285 285 285 285 284 283 283 282 281 280 280 280 279
282 280 284 279 277 279 280 280 279 280 279 277 280 281 282 283 282 283 282 282 283 283 285 286 285 285 290 292 292 294 294 293 292 291 292 292 294 293 292 292 292 293 293 294 293 293 293 293 293 293 293 292 292 292 293 292 291 291 289 289 289 290 289 287 287 285 285 286 286 286 285 285 285 284 284 283 283 282 282 282 281 280 280 279 279 278
280 279 281 280 277 278 276 277 276 277 276 274 277 278 281 281 278 281 282 283 282 282 283 282 281 283 289 292 291 291 291 291 291 292 293 294 294 293 292 292 292 293 293 293 293 293 293 293 293 293 292 292 292 291 291 291 290 289 289 289 289 289 289 287 285 285 285 285 285 284 284 284 283 283 283 283 282 282 281 281 280 280 279 278 278 278
280 280 279 281 278 276 278 276 275 274 275 279 279 280 281 283 284 283 284 284 286 287 282 279 282 289 290 291 291 292 292 291 291 292 293 292 292 293 292 292 292 292 292 293 293 292 292 292 292 292 292 291 292 291 290 290 289 289 289 289 289 289 288 287 285 285 285 285 284 284 284 283 284 283 283 283 282 282 281 281 280 279 278 278 278 277
279 280 281 281 278 280 275 274 275 276 276 278 285 287 286 283 284 283 283 285 287 288 286 288 289 290 290 290 290 289 290 292 293 294 294 293 292 292 292 292 292 292 292 292 291 292 291 292 292 292 291 291 290 289 289 288 288 289 288 288 288 287 287 286 285 284 285 284 284 284 283 284 283 283 282 282 282 281 281 280 280 279 278 278 277 277
281 281 282 283 279 280 277 276 278 274 277 286 285 284 285 287 287 286 287 288 288 289 289 288 289 290 291 290 290 291 292 293 292 291 292 292 292 292 292 292 293 292 291 291 291 291 291 291 291 291 290 289 289 289 288 288 286 287 287 286 287 287 287 285 285 284 284 284 284 283 283 283 283 282 282 281 281 280 280 279 278 278 277 277 276 276
281 281 282 280 281 282 279 278 271 275 283 286 286 285 284 285 285 286 284 288 290 289 289 288 290 291 291 291 291 292 293 291 289 290 292 293 293 292 293 293 291 291 291 291 291 292 291 291 291 290 290 289 288 288 286 287 286 286 287 286 286 286 286 285 284 285 283 284 283 283 282 282 281 281 281 280 280 279 279 278 277 277 276 276 275 275
284 282 283 280 280 275 277 278 280 283 286 286 285 283 281 283 281 284 282 286 289 291 291 290 290 291 291 291 292 292 289 288 287 291 294 294 294 294 295 293 292 292 291 291 291 291 291 290 289 289 288 286 287 286 287 286 285 286 286 285 286 286 286 285 284 284 284 284 283 283 282 282 281 281 280 280 279 278 278 277 277 276 276 275 275 275
281 282 281 280 279 281 278 276 276 276 275 281 287 287 288 289 288 287 285 282 291 291 293 291 290 291 291 291 291 289 287 286 284 289 293 296 297 296 294 292 291 290 290 290 289 288 288 288 287 286 287 286 286 285 285 284 285 285 285 285 285 285 285 284 284 284 283 283 283 282 281 281 281 281 280 279 278 278 277 277 276 276 277 276 275 275
282 281 280 281 280 278 277 274 273 272 277 284 286 286 287 284 289 288 284 283 287 291 292 292 291 291 290 290 290 286 283 282 282 288 293 292 293 292 290 290 290 290 289 288 289 289 287 287 286 286 285 285 285 286 284 284 284 284 284 284 284 284 284 284 284 283 283 283 282 282 282 282 282 281 280 279 278 278 277 277 277 276 276 276 275 274
280 281 281 278 275 277 276 275 275 277 279 284 285 283 284 285 287 285 278 278 288 289 291 292 292 291 291 290 285 286 284 281 283 288 293 291 291 290 291 290 289 288 288 287 286 286 286 285 285 284 284 284 285 285 284 283 284 283 283 284 283 283 283 283 283 283 283 283 282 281 281 282 281 281 280 279 279 278 277 276 276 275 276 275 276 276
276 278 280 278 278 280 282 277 278 281 286 287 286 284 283 286 286 279 278 283 287 289 290 292 291 292 291 287 286 284 288 290 290 291 290 289 289 288 289 288 288 288 287 287 287 286 285 284 285 284 284 285 285 284 283 283 283 283 283 283 283 283 283 282 283 283 282 282 281 280 280 280 280 280 279 279 278 277 276 276 276 275 275 275 276 275
277 277 279 279 278 279 278 277 277 282 287 289 287 286 285 286 279 279 286 289 290 288 289 291 292 293 290 290 288 289 290 291 290 289 290 289 288 288 288 287 286 285 285 286 286 285 284 283 283 282 283 283 284 284 283 283 282 282 282 282 282 282 281 282 282 282 281 281 280 279 279 278 278 278 279 277 276 276 275 275 276 275 275 275 275 274
280 278 276 277 278 278 278 276 276 274 284 290 287 285 286 283 283 291 289 290 290 291 290 290 293 294 291 289 290 292 290 290 289 289 288 288 287 288 287 286 286 285 286 285 284 283 283 283 283 283 282 284 283 284 282 282 282 281 281 281 282 281 281 281 281 280 280 280 279 278 278 278 277 277 276 276 275 275 275 275 275 274 275 275 274 274
283 279 277 279 281 277 277 276 278 284 285 289 291 285 284 290 291 290 291 290 288 288 288 289 289 292 290 290 289 288 288 287 288 288 286 286 287 286 285 285 284 284 284 283 283 283 282 282 282 283 282 283 283 283 281 282 281 281 281 281 281 281 281 280 280 279 279 278 278 277 277 276 276 276 275 275 276 275 275 274 274 274 274 274 274 273
286 284 284 280 284 282 280 284 288 284 287 291 293 290 290 292 292 289 289 291 290 292 290 288 291 291 290 290 289 289 288 288 288 288 286 287 286 285 285 285 284 284 284 284 283 282 282 282 282 283 282 282 282 282 281 281 281 280 279 280 281 280 280 279 279 278 278 277 276 276 275 275 275 275 274 275 275 275 274 273 273 274 273 274 273 273
283 286 283 284 283 286 288 289 290 287 286 290 293 293 292 292 291 287 290 290 290 292 289 288 290 291 290 288 288 286 288 288 288 287 285 285 285 285 284 283 283 283 282 281 281 281 281 282 281 281 281 282 282 281 281 281 280 279 279 280 280 279 279 278 277 276 275 275 274 274 273 274 274 274 274 275 275 275 274 274 273 273 273 273 273 272
283 283 285 282 283 284 280 285 290 290 290 289 291 293 291 293 293 290 288 291 291 292 291 289 291 290 289 287 289 289 288 288 285 286 285 284 284 283 283 284 283 283 282 281 281 281 282 281 281 281 281 281 281 280 280 279 279 279 279 279 279 278 277 276 275 274 274 274 274 273 273 273 272 274 274 273 274 275 274 274 274 273 272 273 271 271
282 284 283 283 283 283 285 287 288 289 287 290 292 291 291 292 292 292 293 291 291 291 291 292 289 287 287 288 288 287 288 287 285 285 285 284 284 283 283 283 282 281 281 281 281 281 280 280 279 280 280 281 280 280 279 278 278 278 277 277 277 276 275 275 274 273 273 273 273 273 273 273 274 273 272 273 273 273 273 273 273 273 272 271 271 270
284 287 282 283 285 286 287 289 291 291 289 291 291 291 293 293 293 292 292 291 290 289 289 288 287 289 287 288 286 286 285 286 285 285 284 284 283 283 283 282 282 281 280 280 280 280 280 279 279 279 279 279 279 278 277 276 276 276 276 276 276 275 274 274 273 273 271 272 273 273 272 273 273 273 272 272 271 271 271 271 272 272 271 271 271 270
284 281 282 283 281 281 283 287 286 284 286 288 290 292 293 293 292 291 290 289 288 288 288 287 288 285 287 287 287 286 286 285 284 285 284 283 283 282 281 281 280 280 280 280 280 279 279 278 278 278 278 278 278 277 276 275 275 275 275 275 275 274 273 272 273 272 272 272 272 272 273 273 272 271 272 271 271 271 272 275 275 275 271 270 276 276
287 286 285 284 283 284 288 290 291 291 290 291 294 293 292 290 290 289 290 290 289 288 288 286 286 286 285 285 285 286 284 284 283 284 283 282 282 282 281 280 280 279 279 279 279 279 278 278 278 277 276 277 276 276 275 274 273 272 273 274 274 273 273 272 272 272 272 272 272 273 272 272 271 272 271 272 271 270 271 269 273 276 276 276 276 276
Wind_Speed
2 7 5 1 2 3 3 2 2 3 4 4 4 3 5 4 3 2 3 0 2 2 6 8 10 12 14 15 14 10 6 8 7 7 7 5 5 5 6 6 6 6 6 5 6 7 9 9 8 7 6 6 6 5 6 6 6 6 7 6 7 7 7 7 7 6 7 6 4 4 7 7 7 7 6 7 7 7 7 5 6 6 7 5 6 6
1 6 3 0 0 2 3 2 3 4 2 3 3 4 6 4 3 3 1 1 1 2 5 7 9 14 15 14 11 7 2 5 8 7 7 7 6 6 6 6 6 5 1 3 3 3 5 6 7 6 6 6 7 6 6 7 8 7 6 7 7 6 7 8 8 8 7 6 7 6 7 6 7 7 7 7 7 7 5 5 5 5 5 5 6 6
7 4 0 2 1 3 4 2 2 2 3 2 2 4 4 3 5 0 2 2 2 1 8 5 11 16 15 12 9 2 1 0 1 3 3 4 5 6 5 6 6 5 5 5 5 4 4 5 6 6 5 6 7 7 8 7 6 7 7 7 7 7 8 7 7 8 7 6 6 6 4 8 5 4 6 6 5 6 6 5 5 5 5 5 5 5
3 0 2 2 2 3 2 3 3 4 3 1 4 4 2 2 5 6 0 1 1 2 5 6 11 14 11 8 4 1 1 1 0 1 2 1 3 3 4 5 6 6 6 7 7 7 6 6 6 6 6 6 5 6 6 7 8 7 7 6 7 8 7 8 8 7 6 6 5 4 2 3 3 2 3 4 3 4 4 5 5 4 5 5 6 5
2 1 2 2 1 2 2 2 4 5 1 2 2 0 2 3 2 1 6 10 14 2 2 8 8 5 3 4 1 3 1 1 1 1 1 4 3 3 4 3 1 3 6 6 6 6 7 8 9 9 7 6 7 7 8 8 9 7 9 8 9 8 8 7 7 7 5 4 4 3 3 2 1 2 2 1 2 3 4 4 5 7 5 6 6 6
2 1 1 1 1 1 1 1 3 1 3 0 1 1 0 2 4 5 7 11 5 2 2 5 6 1 3 8 1 1 0 1 2 2 3 4 4 3 4 6 4 5 2 2 5 7 9 9 6 6 7 8 7 8 8 7 8 6 7 7 6 6 6 6 6 7 6 6 7 5 5 4 3 5 4 8 9 7 7 8 5 6 7 6 6 6
1 1 1 1 2 1 0 1 0 1 0 1 1 1 2 3 3 4 5 6 4 3 5 4 3 6 5 5 3 1 1 3 1 1 0 3 4 4 4 5 5 5 5 5 3 1 5 6 7 7 8 8 8 7 6 5 6 6 5 6 6 6 5 5 5 6 6 6 6 7 8 7 8 8 7 6 7 8 7 7 8 7 7 6 6 5
2 0 1 1 1 1 1 1 1 0 1 2 1 1 2 3 3 4 4 3 5 2 3 2 2 1 8 10 2 0 2 3 5 7 3 1 2 2 3 4 4 4 5 5 5 5 2 5 7 8 7 7 8 5 6 5 5 6 5 5 5 5 5 5 5 7 7 7 7 7 7 7 7 8 8 8 8 7 7 8 7 7 7 6 6 6
2 1 1 1 1 1 0 0 1 1 1 1 1 1 1 1 3 3 3 5 4 2 1 4 3 1 2 9 4 1 2 7 5 5 5 5 5 6 7 7 3 0 1 4 4 5 5 5 5 5 7 6 6 7 7 7 5 5 5 5 5 5 5 5 6 7 7 7 7 8 7 7 7 5 4 5 5 6 6 6 6 6 6 6 5 6
2 2 1 1 0 1 1 0 0 0 1 0 2 2 2 2 1 2 1 4 3 1 1 3 4 1 7 6 8 1 4 4 3 4 5 6 6 5 5 6 7 6 4 4 3 1 2 5 5 5 5 6 7 6 6 6 6 6 6 7 7 7 6 6 7 7 7 7 6 7 7 8 7 5 3 5 6 5 5 6 6 6 7 7 6 5
1 2 2 1 0 1 1 0 0 1 1 2 2 1 1 1 1 1 2 2 2 1 1 1 3 3 3 7 4 4 3 2 4 4 4 6 7 6 5 5 4 4 4 3 0 0 1 3 2 1 1 2 3 4 6 6 7 6 7 7 8 8 7 7 9 8 8 8 7 7 7 7 7 6 6 6 5 5 5 7 7 7 7 7 7 6
1 0 0 0 1 1 0 0 1 2 0 2 1 2 2 1 1 0 2 1 1 1 1 1 1 1 1 5 6 4 5 4 4 4 6 7 7 6 5 5 4 3 3 3 2 1 1 1 1 1 3 3 1 2 4 4 5 6 6 6 7 7 8 8 8 8 8 8 8 7 6 8 8 7 7 9 9 8 8 8 8 7 6 6 7 6
0 1 0 2 0 1 0 0 0 0 0 0 1 1 3 2 2 2 0 3 1 2 0 0 3 2 5 10 8 11 3 4 4 4 4 4 4 4 4 4 4 4 3 2 2 2 2 3 4 5 6 5 6 6 5 5 5 4 5 6 7 8 8 8 8 8 8 7 8 9 8 8 8 8 8 8 8 7 8 8 7 8 8 7 7 8
1 1 2 1 1 1 0 1 0 1 1 0 1 1 1 2 2 1 3 1 1 1 2 3 1 1 6 7 8 4 1 2 4 5 4 4 2 1 2 3 4 4 2 2 2 2 3 4 4 5 5 6 6 7 8 7 7 6 5 6 7 8 5 5 6 8 8 9 9 8 9 8 7 8 8 8 8 8 8 8 8 8 8 8 9 8
3 3 1 2 1 1 1 0 0 1 1 0 1 1 2 3 1 1 1 1 2 4 2 1 1 3 2 3 1 1 1 4 4 4 4 4 2 0 2 1 3 4 4 4 4 3 4 4 4 4 5 5 5 6 6 6 7 7 8 8 8 7 7 7 8 7 9 9 8 8 8 8 7 8 8 8 7 7 8 7 8 8 7 8 8 8
5 4 0 2 1 1 0 0 0 0 0 0 1 2 2 2 1 3 1 0 2 3 6 2 3 2 3 6 7 1 3 4 4 2 5 4 2 0 1 4 6 6 5 5 5 5 4 4 4 4 5 5 5 5 5 5 5 6 8 8 9 10 9 9 9 9 9 8 7 7 8 8 8 7 7 7 6 7 7 7 8 8 8 7 7 7
2 3 0 1 1 1 0 2 1 0 1 1 0 0 1 0 1 2 1 0 1 2 6 3 6 4 4 5 1 3 4 3 2 5 3 3 2 1 1 3 5 5 5 5 5 5 6 5 5 4 5 5 5 5 5 6 6 7 7 7 8 8 7 9 10 10 8 8 7 8 8 7 7 8 9 9 8 7 6 6 7 7 7 6 7 7
2 2 1 0 1 1 0 1 2 1 0 0 0 2 0 1 1 1 0 0 1 2 3 0 5 6 5 3 1 1 4 4 5 3 4 1 1 5 3 5 5 5 5 5 5 5 5 5 6 6 5 5 5 5 5 6 5 6 7 7 7 7 8 7 7 8 8 9 9 8 9 9 9 9 8 7 7 6 6 5 5 5 6 6 6 6
2 3 1 1 2 2 0 0 1 1 0 1 1 1 0 1 0 0 2 1 1 1 3 3 4 5 4 6 0 1 1 2 4 4 3 3 3 3 4 5 5 5 5 6 6 6 6 6 6 6 6 6 5 5 5 5 5 5 5 5 7 9 8 8 7 6 5 6 6 6 7 8 7 6 6 5 5 5 6 6 6 5 5 5 5 7
1 1 1 2 0 1 0 1 3 1 1 2 0 1 0 0 0 2 2 1 2 3 1 4 5 6 4 3 1 3 4 3 2 3 2 2 1 3 5 5 5 5 5 5 5 5 6 6 6 6 6 6 6 5 5 5 4 5 5 5 6 6 5 6 7 7 8 8 7 7 5 6 6 5 5 5 5 6 6 6 6 5 5 6 6 6
0 2 3 0 3 0 1 4 4 7 6 1 1 0 1 0 1 1 1 2 2 1 1 1 4 8 4 1 3 3 4 2 2 1 1 1 1 4 4 5 5 5 5 5 5 5 6 6 6 6 5 5 5 5 5 5 5 5 5 5 5 6 6 6 6 5 6 4 6 5 7 6 5 6 5 5 5 6 5 5 5 5 5 5 6 7
1 1 3 1 0 1 4 2 1 0 0 4 7 5 8 6 2 1 5 1 0 2 3 1 6 9 6 1 3 4 2 2 1 1 3 2 2 4 4 4 4 5 5 5 5 5 5 5 6 5 5 5 4 5 5 5 4 5 5 5 5 5 5 6 6 5 5 5 4 5 5 4 3 3 3 5 5 5 5 5 5 5 5 6 6 8
1 1 0 3 3 4 0 0 1 0 0 1 0 1 1 2 1 2 1 3 1 1 1 1 1 12 5 1 4 2 3 1 2 3 2 2 3 3 3 3 4 3 5 6 5 5 5 5 5 5 5 5 5 5 5 5 5 5 5 5 5 5 7 6 7 5 5 5 5 5 5 5 4 4 4 5 5 5 5 5 5 6 7 7 8 8
2 1 0 3 1 0 1 0 1 1 1 1 1 0 0 3 3 2 2 1 1 0 1 1 1 11 3 1 0 1 1 1 2 1 2 3 4 3 3 3 4 5 6 5 5 5 5 5 5 5 5 5 5 5 5 5 5 5 5 5 5 6 7 6 5 6 5 5 6 6 5 6 6 6 7 7 7 7 6 7 7 7 9 9 8 9
2 3 3 1 2 1 1 0 0 0 1 1 1 3 3 1 3 1 1 0 1 6 6 6 7 10 3 0 1 0 0 2 4 1 4 2 4 3 3 4 3 4 5 6 6 6 5 5 5 5 5 5 5 5 5 5 5 5 5 5 5 6 5 5 5 5 5 6 7 6 7 7 7 8 8 8 7 8 8 8 9 8 9 8 8 6
1 1 4 3 4 4 2 2 1 1 5 3 1 1 3 5 3 2 1 1 2 4 7 3 7 12 8 4 2 3 7 6 3 3 3 4 3 4 4 4 5 4 5 6 6 5 5 5 5 5 6 5 5 5 5 5 5 5 5 5 5 5 5 5 5 5 5 5 6 6 7 8 7 9 9 9 8 8 8 8 7 6 5 5 5 5
1 0 1 4 5 7 3 1 1 1 2 2 2 4 4 3 4 4 1 2 8 3 6 10 9 10 14 19 12 9 5 5 7 6 7 6 5 4 3 4 5 5 5 6 6 5 4 5 5 5 5 5 6 6 5 5 6 5 5 6 5 5 5 5 5 5 5 5 5 6 7 7 7 7 6 7 6 5 5 4 4 4 4 4 5 6
0 1 5 5 6 6 3 5 3 3 2 3 5 5 5 6 6 8 9 8 4 3 11 9 7 7 18 17 12 8 6 7 7 6 6 5 5 5 5 4 6 5 6 5 5 6 6 6 6 6 6 6 7 6 5 5 5 6 6 7 6 5 5 5 4 5 5 5 5 6 6 5 5 5 5 4 4 4 3 3 4 5 5 5 6 6
1 3 2 1 5 3 3 3 5 1 4 4 5 5 8 9 7 11 10 11 4 7 13 6 4 6 14 11 12 11 9 8 9 8 5 5 5 5 3 4 5 5 5 5 5 5 5 6 6 6 7 7 7 8 7 6 6 6 6 5 6 6 6 5 5 5 5 5 6 6 5 5 5 5 5 5 5 5 5 6 5 5 5 5 4 4
1 3 1 1 3 3 3 4 5 5 3 3 6 8 8 10 14 15 14 10 11 11 11 12 12 15 17 16 17 12 10 9 9 6 4 5 5 3 4 5 5 5 5 5 5 5 5 5 5 5 7 7 8 8 8 7 7 7 8 9 7 7 7 4 5 5 5 5 6 5 5 5 5 5 5 5 5 5 5 4 4 4 5 5 5 5
3 3 4 1 1 4 1 2 2 3 2 6 7 6 8 8 9 12 8 7 7 11 15 19 15 19 20 16 11 10 10 7 5 5 6 4 2 4 5 5 5 5 6 6 6 6 5 5 5 6 7 7 7 7 7 6 7 7 8 7 7 7 7 4 5 5 5 6 5 5 5 4 4 4 4 4 4 4 4 5 5 5 5 5 5 6
1 2 1 1 2 4 1 1 2 1 3 6 9 7 8 8 9 8 9 10 8 14 13 5 8 14 19 10 6 7 6 5 5 5 3 2 3 3 4 5 5 5 6 6 6 6 6 6 7 7 7 7 7 7 7 8 8 8 8 7 7 7 6 5 5 5 5 5 5 5 5 4 4 4 5 4 5 5 5 5 5 6 6 6 6 6
5 3 3 1 1 4 0 1 2 3 4 10 11 15 20 15 12 2 5 4 14 14 6 6 12 16 12 3 2 1 2 4 4 3 2 4 3 1 4 5 5 5 5 6 6 6 6 6 6 6 7 6 7 7 6 6 7 8 8 8 8 7 6 5 5 5 5 5 5 5 4 5 5 5 5 5 6 5 6 6 6 6 6 7 6 5
4 4 3 4 2 0 2 3 0 3 9 8 1 2 10 11 15 13 9 14 16 11 11 12 15 6 2 3 2 5 5 5 3 3 2 3 5 3 4 4 5 5 5 5 5 6 6 6 6 6 5 6 6 5 5 5 6 7 6 7 7 7 7 6 5 5 5 5 5 5 5 5 5 5 5 5 5 5 5 6 7 6 6 5 5 6
6 4 3 1 1 1 0 0 3 7 11 3 2 1 1 5 9 17 16 11 10 15 15 13 15 12 12 6 5 5 6 4 3 5 8 6 4 4 3 4 5 5 6 7 7 6 6 6 6 6 6 6 7 7 7 7 5 6 6 6 8 7 7 6 5 5 5 5 5 4 4 4 4 5 4 4 4 5 5 5 4 5 4 5 5 6
7 7 2 1 2 1 1 1 1 9 1 3 4 1 1 1 3 2 7 15 13 14 18 18 19 16 11 6 5 3 0 2 4 4 7 7 4 4 2 3 4 5 6 6 6 6 6 6 7 7 7 5 6 7 6 7 6 6 8 6 7 8 7 6 5 6 5 5 5 5 4 4 4 4 3 3 3 4 4 4 4 4 3 3 3 3
6 2 2 2 3 3 4 6 9 7 15 10 5 2 5 6 5 8 8 11 7 13 13 15 17 14 9 7 6 0 1 2 5 8 4 1 4 4 3 2 4 5 5 5 4 5 5 5 5 6 6 6 6 7 7 6 5 7 8 8 8 7 7 6 6 6 6 5 5 5 4 4 4 3 3 3 3 4 4 4 3 3 3 4 4 5
2 6 2 4 3 5 3 4 4 3 8 3 2 1 1 1 6 2 1 9 5 7 13 15 15 12 7 6 1 1 2 5 6 3 1 1 3 2 1 2 4 4 5 5 5 5 5 6 5 5 6 7 7 7 6 5 6 7 8 8 7 7 7 6 6 6 5 5 5 5 4 4 3 3 2 2 4 4 4 3 3 4 4 6 5 5
2 1 1 4 2 2 2 4 4 5 8 3 2 3 1 1 2 1 1 8 6 9 13 13 11 7 7 5 3 1 3 1 6 4 6 3 1 1 4 5 4 5 5 5 6 7 6 5 5 5 6 6 8 8 6 5 6 7 7 7 7 6 6 6 6 5 5 5 5 4 3 2 1 1 2 3 4 3 4 4 4 3 4 4 4 4
1 0 1 0 4 4 4 4 7 4 7 2 4 3 4 2 3 2 5 7 3 1 7 9 9 7 5 4 5 3 4 4 7 6 3 3 2 4 2 5 5 5 6 6 5 5 5 5 5 6 6 7 8 7 5 5 5 6 6 7 6 7 6 6 5 5 6 6 5 4 2 1 1 1 1 2 1 2 3 3 3 4 4 3 5 5
2 2 4 11 6 5 6 5 3 7 6 5 7 4 4 3 2 1 8 11 2 2 5 7 7 5 5 5 5 3 7 8 7 5 3 4 5 5 2 2 4 3 5 6 6 6 5 4 3 5 6 7 7 7 5 5 6 7 6 6 6 6 5 5 6 6 5 5 4 4 3 2 1 1 2 0 1 2 2 3 4 4 4 4 5 5
0 1 0 1 5 9 5 4 6 7 9 6 0 9 5 3 2 9 8 2 8 5 3 4 6 4 6 6 5 6 6 6 5 5 6 5 4 5 3 2 3 4 3 3 5 5 5 4 4 5 6 6 6 7 5 5 6 6 6 5 6 5 4 5 5 5 5 5 4 4 4 4 4 3 3 2 3 3 4 3 4 4 4 4 5 5
11 8 7 8 4 1 2 3 1 5 5 8 9 3 1 4 8 3 0 1 1 6 6 2 4 5 5 3 5 5 6 6 6 6 6 5 5 6 5 6 6 6 6 6 5 5 3 5 6 6 6 7 6 6 5 6 6 6 5 6 6 5 6 6 5 5 5 5 6 6 6 6 6 4 4 4 4 5 5 4 4 4 4 6 5 6
6 4 3 5 6 7 7 7 9 11 3 11 15 8 7 11 3 2 1 2 1 2 6 5 4 4 4 2 4 6 6 6 7 6 5 4 2 3 5 6 6 6 5 5 4 5 5 5 5 5 5 5 5 6 4 6 6 6 6 6 6 6 6 6 6 6 6 6 6 6 5 5 5 5 4 4 4 5 5 4 4 5 4 5 5 5
12 9 6 8 7 8 9 12 9 2 8 11 10 4 3 9 1 2 4 1 1 1 1 3 4 3 4 4 5 6 6 6 7 6 5 5 4 4 5 5 5 5 5 6 6 5 5 5 7 7 6 5 6 5 5 5 6 6 6 6 6 6 7 6 5 5 5 5 5 5 4 5 5 5 5 4 5 5 5 5 4 5 4 5 4 4
2 4 0 1 5 5 6 5 2 1 2 8 9 4 1 0 0 2 1 1 3 2 4 3 3 2 2 4 5 6 6 7 7 7 5 4 4 5 4 4 4 4 4 5 5 5 5 6 5 5 6 7 6 5 5 6 6 7 7 7 6 6 5 5 5 5 5 5 4 5 5 5 5 5 6 6 6 5 4 5 5 5 4 5 4 4
5 2 2 3 1 5 7 5 14 14 7 6 8 9 5 2 3 4 4 6 5 4 4 5 4 5 5 4 6 7 7 6 5 6 5 4 4 4 4 3 3 3 4 5 4 5 7 5 6 6 6 6 6 5 6 5 5 5 5 6 5 5 4 5 5 5 5 5 5 5 5 5 5 5 6 5 5 5 5 6 5 5 5 6 5 4
3 5 4 4 1 6 6 4 5 2 2 4 10 9 9 10 7 6 7 5 5 5 5 6 4 5 2 4 6 6 8 6 5 5 5 5 4 3 3 3 3 4 4 4 5 5 4 4 5 5 5 5 4 5 5 5 6 6 6 5 5 5 4 5 5 5 4 5 4 4 4 5 6 6 6 6 6 6 6 6 5 6 5 4 3 4
5 7 5 6 8 8 6 12 14 12 8 9 9 7 8 9 9 9 7 7 6 6 6 5 5 6 4 7 5 5 6 6 4 4 5 5 4 3 3 3 3 3 4 5 4 4 4 5 4 4 4 4 4 5 4 5 5 6 6 6 5 4 4 4 4 4 5 5 5 5 4 5 5 5 6 5 6 5 4 5 5 6 5 3 3 3
8 6 2 4 6 4 8 10 5 5 10 6 8 13 12 10 7 7 6 6 6 7 7 6 7 4 5 5 5 5 6 6 4 2 4 3 3 3 3 3 3 4 3 3 4 4 4 4 4 4 5 4 5 5 5 5 6 5 5 6 5 4 4 3 4 4 5 5 5 4 5 5 5 5 5 5 5 5 5 6 7 6 5 3 6 7
9 9 8 8 7 9 9 11 9 10 9 4 3 3 5 6 7 7 7 7 7 7 6 5 6 6 5 4 3 4 5 5 4 1 1 2 2 1 3 4 4 4 3 4 5 5 4 4 4 5 5 6 5 5 5 5 6 6 7 6 6 4 4 4 4 5 6 5 4 5 5 5 5 5 5 5 4 4 5 4 5 8 9 6 4 4
Wind_Direction
283 65 49 61 24 359 9 12 338 294 281 294 295 291 276 281 294 124 111 241 166 291 251 254 261 274 286 286 288 278 234 197 217 227 229 226 227 228 229 226 223 215 216 205 202 190 186 181 178 172 164 167 169 177 175 183 189 188 189 176 187 186 181 174 175 172 170 173 189 195 201 212 204 205 206 207 209 205 202 198 192 183 181 179 179 179
94 74 33 65 22 326 299 312 322 312 281 321 308 305 314 333 327 348 78 183 129 62 295 299 307 287 277 283 281 276 179 189 203 220 226 225 221 220 221 236 233 229 204 163 142 106 129 147 150 152 155 157 167 192 184 188 190 187 187 187 193 182 182 185 185 183 183 189 186 176 197 193 194 199 198 210 203 205 204 195 184 176 179 187 178 177
34 105 113 45 33 290 259 285 282 286 314 311 271 287 309 331 285 354 76 149 188 119 263 322 313 291 292 288 285 262 147 229 192 203 218 213 225 219 212 216 224 204 195 165 175 167 159 152 154 154 167 182 181 179 185 189 181 186 190 192 187 188 185 194 188 177 194 196 197 189 202 188 208 186 185 187 191 183 183 180 172 175 180 184 183 178
66 350 61 29 350 334 262 222 267 260 204 282 354 19 327 351 41 314 172 263 205 215 294 306 295 291 292 270 249 73 143 198 285 332 308 329 265 250 215 204 199 196 184 183 188 190 186 181 176 168 183 191 187 181 182 184 189 189 192 193 190 192 189 189 197 192 193 187 194 177 91 66 84 123 92 82 80 135 149 176 177 188 183 182 185 183
146 79 339 332 267 314 343 357 7 16 3 44 10 62 317 15 331 223 301 319 293 304 354 273 275 285 264 345 12 280 270 353 252 207 258 279 265 287 324 344 315 210 188 192 192 190 178 180 192 190 187 176 189 196 187 184 188 192 194 194 191 194 192 190 188 190 177 131 111 88 58 47 67 26 53 91 199 187 184 176 186 200 187 183 185 184
50 46 2 280 253 288 319 118 28 29 4 33 82 54 34 319 313 311 307 319 334 319 247 352 12 329 0 337 308 220 44 292 151 154 237 221 208 210 251 260 249 257 275 193 194 188 181 181 181 183 181 186 192 197 203 188 188 186 192 187 187 189 192 191 183 177 170 164 161 151 158 188 199 218 194 206 206 198 198 203 187 190 187 184 186 181
145 191 342 334 338 298 274 48 163 19 143 8 265 325 342 319 288 293 315 350 334 339 311 16 86 281 329 315 307 333 5 318 100 293 200 157 178 193 220 223 221 220 228 254 275 294 158 175 171 183 188 192 192 204 186 186 187 185 186 183 179 184 187 184 179 170 169 171 182 186 192 195 195 205 226 215 206 196 201 185 183 186 182 182 183 185
125 270 180 271 265 225 241 174 285 338 76 276 210 281 318 268 299 318 338 264 255 310 308 352 74 278 312 298 271 246 42 359 29 14 16 171 151 209 221 216 210 197 195 197 220 230 220 175 175 185 190 189 195 180 164 171 169 171 176 167 172 177 180 182 170 171 178 182 190 193 200 202 204 201 220 205 203 186 171 179 176 167 179 182 182 182
330 168 212 192 223 277 237 172 141 341 167 246 235 358 295 4 309 316 276 268 260 5 321 354 359 61 257 272 306 285 37 9 349 5 354 28 48 45 41 25 13 171 143 159 189 214 217 213 199 184 184 192 175 169 167 172 175 168 171 166 168 184 184 177 172 175 190 190 192 197 195 211 221 212 213 152 137 136 154 156 167 168 178 181 186 181
351 44 62 31 104 221 119 150 36 84 218 100 288 247 241 288 262 235 298 305 287 55 292 333 349 100 292 274 332 13 51 343 345 355 6 33 43 51 41 36 21 16 31 12 7 345 209 215 209 207 180 172 183 165 160 163 161 169 168 173 176 193 188 172 181 179 192 199 198 195 198 202 215 215 201 149 156 163 167 169 181 177 175 181 190 189
73 94 307 31 35 69 357 90 246 318 307 301 315 324 207 210 217 262 224 251 345 340 250 298 324 77 311 280 255 57 318 357 357 344 357 14 23 25 36 46 27 10 4 358 359 310 16 32 30 5 162 188 149 160 162 169 173 173 178 183 186 195 186 176 182 183 193 195 206 204 198 198 201 201 187 171 185 181 181 189 190 189 182 178 185 185
176 262 55 10 51 358 28 280 98 4 19 26 340 341 356 16 358 16 298 185 45 290 238 111 35 341 180 292 301 334 336 53 52 357 2 4 11 13 2 353 356 357 334 317 331 315 209 207 226 167 276 287 228 185 203 196 186 187 191 188 195 200 193 184 182 186 195 191 202 207 200 202 202 195 192 192 194 192 192 194 193 191 182 186 179 181
323 155 175 76 325 53 226 358 299 231 203 93 329 348 76 289 34 338 7 345 230 249 237 83 331 6 235 231 260 296 330 19 50 63 47 37 14 6 350 337 327 321 314 322 317 309 291 243 230 219 228 221 231 209 211 215 214 214 209 203 202 213 200 191 183 188 195 195 200 202 205 206 199 202 199 199 200 195 195 193 190 185 194 183 179 187
293 317 294 121 98 217 246 111 219 6 239 328 32 23 63 24 22 257 277 246 326 316 254 144 191 235 258 279 243 251 20 80 76 82 67 89 73 5 355 334 335 340 317 312 314 294 277 267 265 249 228 222 221 215 205 203 201 208 213 215 215 227 211 200 190 194 196 204 202 200 205 206 198 205 202 203 201 200 197 191 195 191 190 189 192 184
309 335 251 134 255 20 276 82 171 177 34 197 172 107 163 146 151 255 286 270 237 253 285 290 40 240 1 249 196 99 126 91 93 102 120 111 121 171 274 357 16 13 356 340 331 306 287 276 262 260 256 246 231 224 211 206 205 196 208 208 216 224 216 199 202 199 208 210 206 203 202 204 203 206 205 207 198 198 195 196 195 195 190 190 192 190
200 209 291 296 230 287 256 335 264 321 5 270 134 94 74 200 116 183 213 137 316 356 333 312 197 206 222 252 293 122 102 106 126 144 120 123 126 104 29 20 17 357 342 331 332 325 306 279 272 273 272 264 258 240 230 223 215 209 217 211 213 214 212 204 201 206 207 211 207 203 202 206 204 207 206 208 206 208 196 195 192 194 190 190 183 183
40 267 8 205 291 49 33 310 93 118 150 268 57 296 207 136 109 93 22 12 127 62 252 235 315 311 302 327 328 131 129 165 140 128 94 103 134 106 21 7 3 350 337 332 338 336 333 328 307 274 263 270 268 263 243 233 220 221 223 221 226 225 219 212 205 206 202 206 204 210 204 203 205 205 204 204 204 205 200 192 193 186 191 180 176 172
158 252 320 244 299 282 42 34 335 336 111 11 124 235 234 108 135 122 255 300 223 178 264 76 262 305 31 314 302 340 126 156 104 128 138 124 60 15 357 355 354 339 333 324 327 334 334 334 326 319 293 265 258 257 263 257 241 225 222 220 229 234 230 232 217 210 204 203 208 207 207 207 207 208 210 202 202 197 193 197 189 177 178 183 163 150
96 303 273 302 68 231 177 52 336 320 226 106 177 261 90 229 54 320 91 323 330 295 289 289 280 265 206 250 256 15 71 116 86 71 49 23 14 344 343 341 343 341 341 344 345 344 343 337 333 329 326 313 291 268 262 270 264 250 242 234 225 231 227 227 224 222 225 216 220 216 214 210 212 212 211 210 202 191 192 194 189 184 180 149 140 142
49 195 299 278 101 198 218 154 247 285 314 211 26 349 266 83 181 143 202 195 110 249 22 290 356 274 211 217 138 39 97 77 70 34 32 346 341 347 352 343 338 341 337 334 340 337 335 333 329 326 325 325 318 314 299 282 285 279 264 255 254 259 251 239 224 208 212 211 211 219 218 222 214 212 207 203 200 200 197 192 187 179 167 166 146 153
136 114 261 298 290 43 269 177 215 154 152 6 41 225 8 182 222 147 302 166 177 198 220 263 331 280 273 191 109 81 100 110 94 7 306 282 314 358 348 341 333 329 330 326 331 331 326 324 323 320 315 311 310 304 296 286 270 261 269 269 261 253 259 254 248 228 235 225 232 224 224 219 210 210 201 202 202 200 196 191 186 179 171 144 165 158
105 103 204 102 6 265 224 351 33 45 139 167 160 195 178 130 97 102 276 34 54 112 235 222 249 270 257 254 108 104 122 132 174 206 265 279 335 346 334 331 337 334 323 321 323 321 319 315 317 314 315 315 322 313 309 287 271 270 264 255 259 259 251 251 252 238 236 230 231 234 242 251 248 229 208 207 205 201 196 190 182 170 156 171 177 170
148 170 137 224 204 207 252 14 335 50 19 192 119 202 124 189 141 116 163 255 20 264 81 181 85 269 256 5 94 113 149 159 208 197 253 282 304 315 320 324 331 326 309 317 317 311 303 300 298 302 307 308 304 300 298 301 286 268 261 259 256 248 253 241 248 238 222 220 224 225 221 214 215 199 208 205 214 210 199 191 177 170 171 177 181 183
95 148 71 261 35 359 185 219 314 1 327 351 316 331 44 183 183 168 163 178 160 132 148 35 202 260 264 293 111 128 135 279 313 177 224 265 285 307 323 338 335 329 319 315 310 302 298 299 299 315 318 323 321 318 311 302 297 283 273 260 255 251 255 253 248 242 226 221 221 212 206 207 199 192 197 203 203 204 199 188 184 178 180 184 181 183
120 268 153 290 328 329 346 358 352 318 60 236 228 207 207 85 66 136 118 132 336 210 176 140 230 268 274 322 319 31 130 307 309 262 201 280 315 320 331 326 323 312 311 309 306 298 304 317 323 317 319 320 317 315 313 312 306 303 294 282 263 259 254 250 246 237 227 216 221 214 208 209 199 200 203 206 203 205 197 191 187 185 185 179 183 180
96 257 126 159 207 248 267 283 254 234 229 215 191 110 232 171 157 98 257 182 158 264 179 199 248 257 291 269 252 289 318 325 333 359 343 348 312 329 332 324 309 304 295 293 293 308 308 302 316 329 329 325 320 320 316 313 307 303 304 294 277 271 271 259 251 237 226 221 220 222 216 214 207 207 206 207 210 208 203 196 189 185 186 173 173 170
187 340 176 189 178 209 199 199 248 112 76 175 233 169 211 206 198 178 93 166 202 215 199 232 230 292 298 286 290 290 280 306 329 338 334 332 326 320 317 300 291 291 291 290 288 291 317 338 331 327 328 327 326 322 319 319 317 310 304 302 299 283 270 267 257 250 238 238 232 235 232 226 224 219 217 215 218 216 209 199 187 171 181 175 166 174
60 288 251 220 234 225 174 194 196 170 179 213 151 232 205 183 187 184 188 219 172 189 261 237 245 260 264 273 283 287 302 315 316 322 320 316 314 301 281 282 298 309 303 308 327 335 336 330 334 336 334 340 337 334 331 331 327 319 313 305 302 296 283 273 263 257 251 249 251 248 250 244 243 236 234 231 225 222 206 185 175 178 182 171 177 181
156 191 288 130 267 246 205 187 162 148 199 213 207 186 189 200 179 188 222 221 182 185 239 256 182 228 262 268 278 287 302 301 302 301 280 272 284 293 308 312 303 295 295 315 313 325 332 337 332 336 344 341 343 342 339 339 337 335 327 317 307 299 282 261 248 252 248 248 248 247 245 244 236 226 220 211 204 198 192 186 183 177 177 178 176 176
87 257 193 159 277 293 264 190 174 184 230 229 230 220 202 180 202 202 220 215 215 238 245 263 271 265 267 276 277 287 294 289 286 285 300 309 284 302 327 318 309 301 306 313 314 319 325 326 334 340 344 342 343 341 339 338 337 335 331 323 319 311 291 271 254 253 258 253 253 254 249 240 227 217 208 201 201 200 189 182 176 171 175 180 177 173
144 266 113 157 358 278 249 112 133 196 201 260 252 228 222 212 213 219 227 240 232 267 265 260 271 279 274 262 279 285 274 274 293 290 264 259 326 342 328 313 308 309 309 316 322 323 325 333 342 345 342 338 339 336 333 331 330 327 321 313 316 314 303 276 267 267 265 266 265 262 258 248 241 218 215 209 201 193 179 180 176 175 176 177 175 175
118 247 65 81 344 290 322 180 223 217 271 257 268 257 233 205 219 218 208 215 183 223 240 261 273 260 263 274 241 245 250 250 251 258 269 305 320 326 317 304 307 307 313 314 318 326 339 344 344 339 335 333 333 332 335 334 332 328 318 317 314 307 306 292 270 270 272 266 270 266 251 241 233 213 216 198 199 191 185 175 174 179 179 178 179 184
189 154 149 160 193 259 278 153 301 301 336 283 255 231 221 209 210 228 247 214 209 204 213 212 236 233 248 241 243 272 253 272 280 274 305 304 288 285 288 287 293 301 310 318 327 335 338 336 330 327 326 328 327 330 328 328 324 318 314 314 307 308 309 297 277 274 274 270 264 258 244 233 223 217 208 203 194 188 180 179 182 184 180 187 185 171
161 188 177 162 165 233 258 269 291 4 277 243 234 202 170 188 199 212 229 215 218 165 212 209 234 265 281 251 252 270 285 267 257 252 229 238 271 283 292 292 289 296 308 318 321 322 321 321 320 319 316 312 309 309 307 310 300 291 292 297 303 308 300 298 290 274 271 269 264 254 245 235 224 220 214 201 193 185 186 186 193 191 185 177 174 177
169 171 219 180 153 255 217 28 360 261 252 258 246 297 133 187 182 201 228 231 214 211 234 260 260 254 250 241 243 248 249 274 347 310 296 269 213 211 239 275 286 306 317 316 320 320 318 318 321 323 323 319 318 317 323 317 304 304 313 313 312 306 303 299 290 288 282 280 275 270 262 252 237 234 224 202 192 190 194 196 195 186 186 176 179 176
169 161 174 323 175 347 38 141 230 235 243 243 235 236 251 69 165 171 288 257 230 209 214 232 245 249 254 266 271 258 247 283 300 275 263 270 193 190 200 252 278 305 307 302 305 311 322 324 318 311 304 308 323 316 315 305 312 326 315 318 313 311 307 302 305 303 304 298 291 281 271 257 252 244 231 204 196 195 204 201 193 189 180 160 164 163
164 162 164 217 161 184 197 191 231 317 312 293 262 253 174 190 175 170 230 278 212 213 201 221 239 248 255 259 257 233 355 25 357 307 329 117 154 177 189 257 290 290 287 292 297 301 297 295 302 301 307 317 314 314 312 309 332 331 323 326 321 319 314 315 314 308 303 296 290 281 272 258 244 242 230 206 194 206 205 195 198 184 153 157 168 167
5 164 228 137 257 172 225 302 330 339 270 310 216 333 244 192 164 185 112 284 254 205 195 204 224 234 241 246 215 138 63 38 325 291 254 167 161 179 266 306 304 303 303 304 308 300 306 309 316 318 323 317 319 311 309 329 343 335 326 322 321 325 321 322 310 302 301 296 289 279 269 254 226 230 232 200 204 207 205 190 174 177 166 166 169 172
341 103 19 157 239 89 170 186 217 226 248 191 231 222 206 202 142 135 52 283 257 213 200 192 206 218 211 187 178 85 62 298 247 249 236 222 220 286 334 317 307 300 301 298 299 309 318 315 312 313 327 326 321 315 323 345 351 337 324 321 321 323 323 322 318 324 326 315 308 301 292 269 247 238 229 218 218 190 188 184 181 169 152 159 147 157
110 262 87 314 250 196 165 192 236 217 256 264 211 226 218 126 125 64 340 274 275 318 164 159 188 200 196 156 137 123 155 218 255 256 216 234 296 353 338 306 313 308 301 302 311 305 315 329 354 343 331 323 311 313 331 354 353 336 327 325 329 334 334 337 344 348 346 337 333 339 354 12 339 307 255 234 211 174 179 161 129 134 141 136 129 126
176 227 193 216 205 224 189 259 316 288 272 195 187 189 166 170 105 360 245 244 234 182 155 159 176 172 143 146 144 171 225 203 221 235 283 334 349 325 309 285 270 273 296 314 310 320 341 328 339 324 317 315 319 328 336 4 355 339 330 328 337 337 336 343 351 343 333 331 339 353 2 12 25 329 330 234 167 146 115 119 121 123 124 111 97 104
148 119 257 134 234 214 195 201 239 270 245 182 265 152 174 108 223 216 236 229 156 188 197 141 153 153 144 166 184 207 232 237 267 310 314 306 283 272 271 275 305 317 300 292 311 332 331 338 342 336 330 323 329 327 342 10 356 331 330 339 337 325 336 351 341 333 337 345 356 10 21 24 20 35 40 45 79 76 69 74 100 113 105 92 103 101
181 153 198 187 203 121 179 186 360 276 283 138 123 82 319 152 236 218 258 356 147 169 157 188 149 180 143 194 213 221 256 280 276 274 272 289 309 307 317 330 331 326 324 332 334 320 346 347 347 344 332 329 335 340 351 17 352 338 340 340 325 334 350 341 339 347 355 11 25 27 28 25 33 26 29 46 68 87 76 70 83 78 88 97 92 97
179 131 193 216 179 161 166 177 202 218 165 159 146 182 211 211 188 187 114 198 352 138 165 169 221 181 169 182 245 268 258 267 292 283 289 292 298 320 330 321 324 325 322 317 316 320 8 359 348 338 333 332 342 342 5 24 349 340 342 333 338 353 349 351 359 11 18 25 27 28 24 26 26 26 30 49 65 73 80 71 75 69 81 89 99 98
193 195 168 181 206 164 193 209 225 199 178 196 193 203 202 217 176 145 106 136 147 256 190 138 195 208 188 201 237 245 278 271 261 274 288 293 323 316 308 300 301 309 317 322 323 347 20 8 345 336 334 344 348 345 23 21 359 341 351 345 353 355 357 358 5 25 29 29 26 25 23 31 29 24 32 35 68 80 79 71 73 74 55 86 84 93
280 222 97 104 241 270 278 237 242 201 220 228 245 221 132 54 84 126 161 206 252 212 176 169 205 185 209 197 217 263 241 258 275 291 299 305 304 295 306 328 331 332 333 343 346 359 17 360 348 341 339 341 346 358 26 16 11 9 353 344 351 356 354 2 27 36 37 35 31 26 35 47 32 31 35 45 55 71 77 90 81 82 64 73 81 90
235 162 184 200 262 130 255 240 235 234 227 226 229 255 260 221 205 178 196 212 216 198 202 217 202 224 219 196 203 228 252 253 267 279 288 294 298 295 311 312 318 343 347 352 346 26 2 355 348 346 345 347 342 15 21 17 15 15 349 348 353 349 5 29 45 46 37 38 35 33 42 50 46 38 37 48 52 58 62 68 78 79 74 80 85 82
285 178 172 215 232 197 235 231 255 266 229 221 205 232 244 246 242 220 214 210 197 204 202 218 211 263 214 216 213 219 249 263 263 275 287 287 287 309 322 338 343 359 345 18 28 13 360 359 354 344 351 346 355 24 18 14 19 8 4 353 355 355 32 45 47 53 44 41 46 51 52 51 52 56 51 45 50 48 43 48 70 72 67 65 83 94
165 123 221 169 204 248 307 293 279 285 275 258 246 227 225 224 223 232 226 224 223 228 243 253 216 226 204 229 212 213 246 263 244 242 263 287 320 326 328 342 359 18 18 20 3 12 18 359 354 345 359 1 20 20 21 21 19 8 6 352 351 10 50 53 51 50 44 46 52 51 47 53 58 63 68 63 58 55 67 80 66 86 70 52 75 91
97 198 202 122 231 251 211 233 218 256 271 260 242 235 230 226 205 218 211 219 223 229 239 247 269 228 209 218 206 206 229 260 256 242 267 281 305 324 355 14 27 27 4 10 30 32 20 356 10 14 21 23 18 18 27 23 17 5 1 356 352 17 48 51 58 51 43 46 49 48 55 56 57 59 67 72 74 68 44 51 74 69 93 55 36 45
184 195 155 202 189 233 222 234 220 229 258 234 237 231 218 209 191 198 198 211 220 218 214 209 252 290 280 262 214 201 228 234 260 240 326 342 326 4 44 45 13 357 20 31 38 20 20 14 17 36 30 26 13 18 26 25 10 3 357 354 352 8 17 33 59 56 51 48 44 52 57 59 56 56 58 57 62 65 74 51 38 64 67 60 48 43